Meteo Giornale » Osservazioni meteo Francia » Le Luc
ore: 22:00 - Osservazioni Meteo Le Luc
Lat. 43° 23' N Lon. 6° 23' E Alt. 80 metri s.l.m.
29 °C
Sereno
Temp. 24 Ore
21 °C
36 °C
Ovest
25.9 Km/h
Dew point 14 °C
Umidità 39 %
Visibilità 10 Km
Il sole sorge alle ore 06:57
Il sole tramonta alle ore 20:12
| Data e Ora | Cielo e Fenomeni | T °C | DP °C | Um. % | Pres. hPa | Vis. km | Vento km/h | |
|---|---|---|---|---|---|---|---|---|
| Oggi h: 22:00 | Sereno | 29 | 14 | 39 | 1015 | 10 | O 25.9 | |
| Oggi h: 21:30 | Sereno | 29 | 13 | 37 | 1015 | 10 | O 24 | |
| Oggi h: 21:00 | Sereno | 30 | 14 | 37 | 1015 | 10 | O 25.9 | |
| Oggi h: 20:30 | Sereno | 30 | 14 | 37 | 1014 | 10 | O/NO 25.9 | |
| Oggi h: 20:00 | Sereno | 31 | 14 | 35 | 1014 | 10 | O/NO 22.2 | |
| Oggi h: 19:30 | Sereno | 32 | 14 | 33 | 1014 | 10 | O 25.9 | |
| Oggi h: 19:00 | Sereno | 33 | 14 | 31 | 1014 | 10 | O 29.6 | |
| Oggi h: 18:30 | Sereno | 34 | 14 | 30 | 1014 | 10 | O 25.9 | |
| Oggi h: 18:00 | Sereno | 34 | 14 | 30 | 1014 | 10 | O/NO 25.9 | |
| Oggi h: 17:30 | Sereno | 36 | 14 | 26 | 1014 | 10 | O 24 | |
| Oggi h: 17:00 | Sereno | 35 | 13 | 26 | 1014 | 10 | O/NO 25.9 | |
| Oggi h: 16:30 | Sereno | 36 | 13 | 25 | 1014 | 10 | O 27.8 | |
| Oggi h: 16:00 | Sereno | 36 | 13 | 25 | 1014 | 10 | O/NO 25.9 | |
| Oggi h: 15:30 | Sereno | 35 | 14 | 28 | 1015 | 10 | O/NO 25.9 | |
| Oggi h: 15:00 | Sereno | 36 | 12 | 23 | 1015 | 10 | O 25.9 | |
| Oggi h: 14:30 | Sereno | 36 | 13 | 25 | 1015 | 10 | NO 24 | |
| Oggi h: 13:30 | Sereno | 36 | 14 | 26 | 1015 | 10 | NO 24 | |
| Oggi h: 13:00 | Sereno | 35 | 13 | 26 | 1015 | 10 | O/NO 22.2 | |
| Oggi h: 12:30 | Sereno | 34 | 13 | 28 | 1015 | 10 | O 24 | |
| Oggi h: 12:00 | Sereno | 33 | 15 | 33 | 1015 | 10 | O/SO 24 | |
| Oggi h: 11:30 | Sereno | 31 | 15 | 37 | 1016 | 10 | O/SO 16.7 | |
| Oggi h: 11:00 | Sereno | 31 | 15 | 37 | 1016 | 10 | O 16.7 | |
| Oggi h: 10:30 | Sereno | 29 | 15 | 42 | 1016 | 10 | O 20.3 | |
| Oggi h: 10:00 | Sereno | 28 | 14 | 42 | 1016 | 10 | O 18.5 | |
| Oggi h: 09:30 | Sereno | 26 | 15 | 50 | 1016 | 10 | O 16.7 | |
| Oggi h: 09:00 | Sereno | 25 | 14 | 50 | 1016 | 10 | O 18.5 | |
| Oggi h: 08:30 | Sereno | 24 | 14 | 53 | 1016 | 10 | O/SO 18.5 | |
| Oggi h: 08:00 | Sereno | 23 | 14 | 56 | 1016 | 10 | O 16.7 | |
| Oggi h: 07:30 | Sereno | 21 | 13 | 60 | 1015 | 10 | SO 7.4 | |
| Oggi h: 07:00 | Sereno | 22 | 13 | 56 | 1015 | 10 | O 13 | |
| Oggi h: 06:30 | Sereno | 21 | 14 | 64 | 1015 | 10 | O/SO 9.3 | |
| Oggi h: 06:00 | Sereno | 22 | 14 | 60 | 1015 | 10 | O 13 | |
| Oggi h: 05:30 | Sereno | 21 | 14 | 64 | 1015 | 10 | O/SO 13 | |
| Oggi h: 05:00 | Sereno | 22 | 14 | 60 | 1015 | 10 | SO 14.8 | |
| Oggi h: 04:30 | Sereno | 22 | 15 | 64 | 1016 | 10 | O/SO 14.8 | |
| Oggi h: 04:00 | Sereno | 23 | 15 | 60 | 1016 | 10 | O/SO 16.7 | |
| Oggi h: 03:30 | Sereno | 23 | 15 | 60 | 1016 | 10 | O 16.7 | |
| Oggi h: 03:00 | Sereno | 23 | 15 | 60 | 1016 | 10 | O 9.3 | |
| Oggi h: 02:30 | Sereno | 23 | 15 | 60 | 1016 | 10 | O/SO 7.4 | |
| Oggi h: 02:00 | Sereno | 22 | 15 | 64 | 1016 | 10 | N 5.5 | |
| Oggi h: 01:30 | Sereno | 22 | 15 | 64 | 1016 | 10 | SO 9.3 | |
| Oggi h: 01:00 | Sereno | 23 | 14 | 56 | 1016 | 10 | SO 11.1 | |
| Oggi h: 00:30 | Sereno | 23 | 15 | 60 | 1016 | 10 | SO 11.1 | |
| Oggi h: 00:00 | Sereno | 23 | 15 | 60 | 1016 | 10 | SO 11.1 | |
| Ieri h: 23:30 | Sereno | 24 | 15 | 57 | 1016 | 10 | S/SO 7.4 | |
| Ieri h: 23:00 | Sereno | 24 | 17 | 64 | 1016 | 10 | SO 7.4 | |



